Lid_Strength_Index
5 5 5 5 4 4 4 4 3 4 4 4 3 2 2 2 2 3 4 3 3 3 3 3 3 0 2 2 2 2 2 3
5 4 5 4 5 4 4 4 3 3 4 3 4 4 3 2 3 3 4 4 4 4 4 3 3 3 4 4 3 3 2 2
5 4 3 4 4 4 4 4 4 4 3 3 3 4 4 4 3 3 4 4 4 4 4 4 4 4 5 4 3 3 2 2
4 4 4 4 3 4 3 3 3 2 3 3 3 3 4 4 3 3 3 4 4 5 4 5 4 4 4 4 4 2 2 2
5 5 5 4 3 3 3 2 2 3 2 3 2 2 3 3 3 2 2 3 3 4 4 4 3 2 3 3 2 2 3 2
5 4 4 4 4 4 3 0 2 2 2 2 2 2 2 3 3 2 2 2 2 3 3 4 3 2 3 3 2 2 3 3
4 4 4 4 4 3 2 1 2 2 2 2 1 1 2 2 3 4 2 0 1 3 3 4 4 3 3 3 1 3 3 3
3 3 3 4 3 2 2 1 1 2 2 2 1 2 2 3 2 2 2 1 1 2 2 2 3 2 3 3 3 3 3 3
3 3 3 3 3 3 2 1 1 2 3 3 3 3 3 3 2 1 1 2 1 1 1 2 3 2 3 3 3 3 3 3
4 4 4 3 2 3 3 2 1 2 3 2 2 2 2 3 3 2 2 1 1 2 2 2 2 3 4 4 3 4 3 3
4 4 3 3 3 3 2 2 2 3 2 2 2 2 2 3 3 3 2 1 1 2 1 2 3 3 3 3 3 4 4 4
4 4 4 3 3 2 2 2 3 3 2 3 4 4 4 3 4 3 2 1 1 0 1 1 2 3 3 3 2 3 4 4
5 4 4 3 2 2 2 3 3 3 2 3 4 4 3 3 3 3 3 2 1 1 1 2 2 3 2 2 3 2 3 4
4 4 3 3 2 2 3 3 3 3 2 3 4 3 2 3 3 3 2 2 2 2 1 2 2 2 2 2 2 2 3 3
5 5 4 4 3 3 3 3 3 3 2 3 3 3 3 2 2 2 2 1 3 3 2 2 2 2 2 2 3 2 3 3
4 5 5 5 4 3 3 3 3 3 3 3 3 2 2 2 2 3 1 1 2 2 2 2 2 1 1 1 2 2 2 3
7 6 5 5 5 4 4 4 5 3 3 3 2 2 2 2 2 2 1 1 1 1 2 2 1 2 0 1 3 3 3 3
9 7 7 6 5 4 4 4 4 2 2 3 2 3 2 2 2 2 2 1 1 1 1 1 1 1 1 1 2 3 2 3
8 8 6 5 4 4 4 4 4 4 4 3 2 2 2 2 2 2 2 1 1 2 1 1 1 1 1 1 2 2 1 2
7 7 6 6 6 5 4 5 5 5 5 5 5 2 2 3 3 2 1 2 2 2 2 1 1 1 1 1 2 2 1 2